Theta_e
314 310 306 301 298 297 295 292 288 286 280 278 275 277 280 282 282 282 282 284 283 285 283 285 283 286 287 283 283 282 282 283 283 280 279 283 289 293 293 294 294 297 298 298 298 301 310 320 321 322 321 321 320 319 319 319 318 317 317 318 318 318 317 318 317 318 318 317 317 317 317 317 317 317 316 316 316 317 317 317 317 317 317 317 317 317 317 318 318 318 318 319 319 319 319 318 318
306 305 300 299 302 299 294 289 282 277 276 276 276 276 278 282 283 282 282 281 282 286 284 284 283 283 284 285 284 284 284 287 286 287 288 290 292 291 293 298 295 298 297 298 298 300 305 306 321 321 321 320 320 319 319 318 319 318 317 319 318 318 318 317 318 318 317 317 317 317 317 317 317 316 317 315 316 316 317 316 316 316 316 316 317 317 317 317 317 317 318 318 318 318 318 318 317
304 302 299 299 297 294 291 287 285 275 277 278 274 277 281 280 280 280 283 281 283 285 283 284 284 285 286 286 286 286 282 285 286 286 289 291 294 293 294 297 297 298 298 297 299 300 303 306 320 321 321 321 320 320 319 318 318 318 318 317 317 318 316 317 318 318 317 317 316 316 316 316 316 316 316 317 316 316 316 316 315 316 316 316 316 316 317 316 317 317 318 318 317 317 317 317 317
301 304 300 297 296 292 284 279 278 276 279 273 276 277 278 280 281 282 283 282 283 284 284 285 285 286 286 283 285 285 284 286 287 289 288 291 293 291 295 297 300 297 297 298 298 300 301 310 319 320 320 321 321 320 319 319 318 319 318 317 317 316 317 318 317 316 315 316 316 316 316 315 315 315 315 316 317 317 316 316 315 316 316 315 316 316 316 316 316 317 318 317 317 317 317 317 316
300 305 300 294 292 291 282 279 275 274 277 276 276 276 280 279 282 281 283 283 282 282 284 285 284 286 286 286 284 286 284 284 287 288 290 290 292 291 296 298 298 297 297 297 299 301 300 314 317 319 320 321 321 320 319 318 319 319 318 318 316 318 317 316 316 315 315 315 316 315 314 314 314 314 314 315 315 316 316 315 316 316 316 316 316 316 317 317 317 317 317 317 317 317 317 317 316
298 297 299 293 289 289 284 282 280 277 278 275 276 278 279 281 282 282 285 284 284 282 284 283 285 287 286 284 285 285 284 291 290 289 290 291 293 293 296 301 298 297 296 297 299 299 300 316 316 318 319 321 321 320 319 319 320 318 318 318 318 316 316 315 314 315 314 314 314 315 314 314 313 313 313 313 314 315 315 315 315 316 317 316 316 316 316 316 317 317 317 317 317 317 317 317 316
299 294 293 292 287 287 282 277 277 274 280 278 280 279 282 281 283 283 284 285 285 284 283 286 283 285 283 284 287 288 287 292 290 293 293 294 294 294 297 299 298 297 296 296 299 301 299 315 315 316 318 320 321 321 320 319 319 319 319 318 316 316 314 315 315 314 313 313 314 314 313 313 312 312 312 312 312 314 313 314 313 315 316 315 315 315 316 316 316 317 317 317 317 317 317 317 316
299 296 291 288 282 281 278 276 277 275 281 279 280 280 281 283 282 283 283 283 283 284 283 282 283 285 283 284 285 286 287 289 292 293 292 292 294 295 298 298 297 297 296 295 299 301 308 315 315 316 316 319 320 321 321 320 319 319 318 317 316 316 316 314 313 313 312 312 312 313 313 312 311 311 311 311 311 312 312 313 312 314 316 314 314 315 315 315 316 316 317 317 317 317 317 317 316
294 293 291 288 281 278 275 278 278 277 278 280 281 282 290 284 284 283 282 282 282 282 283 284 282 283 280 282 284 285 284 286 289 294 293 293 293 296 298 297 297 297 296 295 298 300 302 314 315 316 316 317 320 321 321 320 319 319 318 317 316 316 315 314 313 312 313 312 312 311 312 311 310 310 310 310 310 311 311 312 311 313 315 314 314 314 315 315 315 316 317 317 316 316 316 316 316
292 293 286 284 279 281 276 277 278 281 280 281 282 284 284 282 283 283 283 283 282 282 283 282 282 283 282 283 283 285 286 290 290 295 292 293 294 295 297 297 298 297 296 295 297 300 301 310 316 316 316 317 318 320 320 320 319 318 318 318 317 316 316 315 313 313 312 312 311 311 311 311 310 310 309 309 309 310 311 310 310 312 314 314 313 314 314 315 315 316 317 317 316 316 316 315 315
290 288 285 282 277 276 277 278 275 277 282 279 280 281 283 283 283 281 281 282 282 283 283 282 286 283 285 283 284 286 286 289 292 293 294 293 294 295 296 297 297 297 297 295 295 298 301 303 314 316 315 316 317 319 320 320 319 318 318 317 317 316 316 315 314 313 313 311 311 311 310 310 310 309 309 308 309 309 310 310 309 310 313 313 313 313 314 314 315 316 316 316 316 316 315 314 314
287 285 282 276 277 278 276 276 279 277 279 278 283 286 282 283 282 282 281 282 281 281 282 284 286 282 283 281 282 283 285 287 293 293 293 293 294 295 296 296 296 296 297 295 296 297 299 300 305 314 316 315 316 317 318 319 319 318 318 318 317 317 317 316 315 314 313 312 311 311 310 310 309 308 307 308 308 308 309 309 309 309 312 312 312 313 313 314 315 315 316 316 316 316 314 313 313
288 284 280 279 279 276 277 277 278 282 278 278 282 284 283 282 283 281 281 281 281 282 283 285 284 286 284 282 282 283 286 289 291 292 293 293 294 294 294 294 295 295 295 297 295 296 297 299 301 305 310 316 315 315 316 317 318 317 317 317 317 317 317 316 315 315 314 313 312 311 310 310 310 308 307 308 308 308 308 309 309 309 311 312 312 312 313 313 314 315 315 315 315 314 313 311 311
288 285 281 281 276 276 276 278 276 280 278 279 280 281 284 282 283 281 281 282 281 281 284 285 285 284 283 283 287 281 283 286 287 292 292 293 293 292 293 292 293 293 294 295 295 295 296 298 300 301 306 309 306 314 316 316 316 316 316 316 318 317 317 316 315 314 313 313 312 312 311 309 309 308 308 308 308 308 309 308 308 308 310 311 312 312 312 313 314 314 314 314 314 313 312 309 309
291 284 280 277 277 277 276 279 278 276 282 279 283 282 282 286 282 280 284 282 283 283 288 285 286 285 281 285 283 283 287 287 289 292 293 292 292 292 293 292 293 292 292 292 294 295 296 297 299 300 303 304 305 304 303 309 316 315 315 316 316 316 316 315 315 314 313 313 313 312 311 310 309 309 309 308 309 309 309 309 308 307 308 310 311 312 312 312 313 313 314 313 313 312 310 307 307
288 285 280 280 279 278 279 277 275 277 281 280 283 282 283 285 281 284 284 285 286 284 285 287 287 287 284 284 285 288 287 286 291 291 292 292 292 292 293 293 292 291 292 293 292 293 295 297 298 299 301 302 302 302 303 302 312 317 315 316 316 316 315 315 315 315 315 314 313 313 312 306 309 303 308 303 309 308 309 307 307 306 307 309 310 311 311 311 312 312 312 312 311 311 308 304 304
289 285 284 276 281 280 280 279 278 283 279 278 279 282 284 283 284 283 284 283 285 284 285 284 288 288 285 284 285 286 287 294 296 291 292 291 291 291 291 291 292 291 293 293 292 293 294 296 297 298 300 302 302 302 302 301 303 314 316 316 316 316 316 316 316 315 315 314 313 313 311 303 296 294 295 293 304 297 305 306 307 307 307 307 309 310 310 310 311 311 310 310 309 307 304 302 302
289 284 279 281 278 280 280 279 280 282 280 281 282 282 283 282 283 286 286 286 284 282 282 284 284 285 287 286 284 287 290 290 291 292 291 291 289 290 290 290 290 293 293 293 293 293 293 295 296 298 299 300 301 302 302 302 302 309 304 303 305 310 314 315 311 305 309 300 310 306 300 298 296 293 293 300 294 295 296 303 305 305 306 306 307 308 309 309 310 309 309 308 307 304 302 288 290
284 279 279 284 278 282 280 278 279 282 285 281 281 281 282 283 283 285 285 281 282 283 285 285 287 289 290 289 287 287 288 289 290 291 290 291 290 291 292 291 291 291 292 293 293 293 293 294 295 297 298 299 300 300 302 301 301 300 301 303 303 311 307 306 303 303 299 298 297 296 299 297 295 294 293 295 296 302 300 304 306 306 306 306 307 308 308 308 308 307 307 305 305 303 290 286 286
284 285 282 279 279 282 279 279 281 281 281 281 282 282 281 282 283 284 284 279 279 282 285 282 285 288 290 291 287 287 287 288 289 290 290 291 291 292 291 291 292 292 293 293 294 294 293 294 295 297 298 298 299 300 300 300 299 299 300 300 302 302 302 303 301 300 300 298 299 297 296 295 295 293 299 301 302 295 295 301 302 303 303 302 302 302 303 303 305 305 304 304 300 293 286 286 287
286 281 278 285 280 284 284 279 283 280 282 281 281 280 281 281 281 283 281 283 283 285 286 288 287 287 289 287 286 286 287 287 287 289 290 291 291 292 293 293 293 293 293 292 294 295 293 294 294 295 297 298 298 299 300 299 298 297 298 297 298 299 300 300 300 299 299 298 297 298 295 294 293 292 290 290 291 290 289 290 290 289 288 287 297 290 291 290 292 287 287 290 285 287 287 287 286
281 282 281 283 280 283 284 280 282 280 279 280 279 282 281 281 282 282 280 282 285 283 285 287 289 289 287 286 285 285 286 287 288 288 290 291 291 291 292 292 291 290 291 293 293 294 294 294 294 294 296 297 298 298 299 300 301 297 296 296 296 297 298 298 299 299 299 298 297 296 295 294 293 293 290 291 291 290 290 289 290 288 287 288 290 289 289 287 287 287 286 286 286 285 285 285 285
287 282 279 280 279 284 281 281 280 279 280 279 279 281 281 282 281 279 281 284 287 283 285 283 287 288 285 284 285 284 286 287 288 288 289 290 290 291 292 292 292 292 290 293 292 292 294 294 294 294 295 296 297 298 298 298 298 298 297 296 296 296 296 297 297 298 298 298 296 296 296 294 293 292 292 291 291 290 290 290 289 288 288 288 289 288 288 287 286 286 286 286 284 285 285 285 285
282 282 280 284 280 283 280 282 278 277 280 280 280 283 283 280 282 280 281 287 289 285 282 284 281 283 282 284 283 286 286 287 288 289 290 291 291 292 292 292 292 290 289 291 291 292 295 294 294 294 294 295 296 297 297 297 297 297 297 299 299 299 298 297 298 298 298 298 297 297 297 294 294 292 293 291 292 288 291 291 289 288 289 288 288 287 289 287 287 286 285 285 286 285 285 285 285
283 283 281 282 280 281 279 277 277 278 280 279 281 282 282 280 282 280 284 287 287 288 288 289 288 284 284 284 286 285 285 286 287 288 289 290 290 291 290 290 289 289 290 291 291 291 292 295 294 294 294 295 295 296 297 297 297 297 297 297 298 301 299 298 298 298 297 297 296 296 296 295 293 293 293 293 290 291 291 290 288 289 289 289 287 287 288 288 288 287 286 286 285 285 284 286 286
282 282 280 279 282 279 280 281 278 279 281 280 284 281 279 279 280 282 288 289 287 286 285 286 285 285 286 286 287 286 286 286 287 287 289 289 289 289 290 290 290 290 292 292 290 291 292 293 294 294 295 295 296 295 296 296 297 297 297 297 298 300 299 299 296 297 297 296 296 296 296 296 295 294 294 292 292 292 290 290 290 290 289 288 288 289 289 287 288 286 286 285 286 286 285 286 288
280 280 280 282 280 280 280 282 279 279 282 281 284 280 280 280 282 283 283 283 280 283 282 280 281 284 285 286 286 285 285 286 287 288 287 287 288 289 291 289 290 292 291 291 291 292 293 292 293 295 295 297 295 295 295 296 296 296 297 297 297 298 298 299 298 297 296 296 297 296 295 296 296 294 293 293 292 291 291 291 290 289 289 289 289 289 287 288 288 287 288 287 287 286 287 285 286
279 279 279 279 279 281 280 282 280 280 284 279 283 280 280 281 280 284 289 282 282 282 283 281 281 283 284 284 284 285 285 286 286 286 287 287 289 289 289 290 290 291 291 292 292 292 291 292 293 294 295 295 296 295 296 296 296 296 297 296 297 297 297 297 297 297 297 296 296 295 295 295 296 295 294 294 293 292 292 291 290 289 290 289 289 288 288 288 288 287 286 285 285 285 286 285 285
281 280 284 280 278 283 281 282 280 280 283 280 280 281 280 280 281 287 286 282 283 281 283 284 282 282 283 283 283 283 285 286 284 285 288 289 289 289 290 291 291 291 292 293 292 292 292 292 293 293 294 294 295 295 295 296 296 296 296 296 297 298 297 297 296 297 297 297 296 296 296 295 296 296 295 295 295 293 292 291 291 291 291 290 288 288 287 286 286 286 287 286 285 285 285 287 286
282 281 281 283 278 282 282 280 281 282 283 278 280 280 276 279 284 286 284 283 281 283 284 285 286 286 286 285 284 284 284 284 284 286 287 288 289 289 289 290 291 291 292 291 290 292 294 293 294 294 293 293 295 295 296 295 295 296 296 296 297 296 296 296 297 296 297 296 296 295 295 295 296 295 295 294 293 293 292 292 292 292 290 288 288 288 288 287 287 286 287 286 290 287 287 286 285
284 280 279 278 280 281 282 281 279 283 283 280 283 281 284 284 283 284 282 281 282 285 287 286 286 286 286 285 284 284 285 284 286 286 287 287 288 288 289 289 290 290 291 290 291 293 293 293 294 294 295 293 295 295 296 295 295 295 295 295 295 296 296 295 296 296 295 296 296 295 295 295 296 295 295 295 294 293 293 292 292 292 291 288 289 288 288 288 287 288 287 287 286 285 284 286 285
279 283 281 275 280 278 278 282 278 283 283 280 284 277 279 283 286 283 282 281 283 285 286 285 285 285 285 284 284 284 285 284 284 285 286 287 287 288 288 289 289 289 290 291 291 292 291 292 294 293 293 294 293 295 295 296 296 295 295 297 295 294 295 295 295 295 295 294 295 295 295 295 296 295 295 294 294 293 293 293 293 292 290 288 288 287 287 288 287 287 287 287 286 287 286 287 284
275 281 277 280 279 276 279 281 278 278 279 281 282 282 282 285 280 277 278 285 283 282 284 285 284 284 284 285 285 285 285 286 285 285 286 286 287 287 288 288 289 290 290 290 290 290 291 290 294 293 293 294 294 294 295 294 295 295 295 295 296 294 294 294 294 294 294 294 294 294 295 295 295 295 295 294 294 294 293 293 293 292 289 289 288 287 287 289 288 288 287 287 286 287 285 285 286
275 274 281 277 280 278 278 278 281 279 280 284 278 282 280 285 287 288 287 283 282 282 284 285 285 284 284 284 284 284 284 284 286 287 287 286 287 287 287 291 289 289 289 290 290 291 291 291 291 293 293 293 294 294 294 295 295 295 294 294 295 294 294 294 293 293 294 294 293 294 294 295 295 294 294 294 294 294 294 293 293 291 290 288 288 288 288 287 287 287 288 286 286 285 285 286 286
280 278 276 276 274 275 277 279 282 281 278 282 278 278 281 284 285 286 285 282 281 284 285 285 284 284 285 285 286 285 285 284 287 287 286 286 286 286 286 286 287 288 289 289 289 290 290 290 291 293 294 292 293 293 293 293 292 291 291 290 291 292 293 292 292 292 293 293 293 294 294 294 295 294 294 294 294 294 293 293 292 291 290 288 288 288 288 286 286 285 286 287 284 285 286 286 286
280 277 278 276 278 275 278 277 276 280 280 280 278 280 281 283 284 286 287 283 282 283 283 283 283 283 285 286 287 288 288 288 289 288 287 287 286 286 286 285 285 286 287 288 289 289 290 289 290 290 293 293 291 291 291 291 290 292 292 290 290 291 291 292 292 293 293 293 294 294 294 294 294 295 294 294 294 294 293 293 293 290 289 289 289 288 288 287 287 286 285 286 285 284 285 284 283
276 276 275 277 277 277 276 276 279 277 279 275 275 274 276 281 284 286 286 284 282 282 284 284 285 286 287 287 288 288 289 290 290 289 288 287 287 287 286 285 285 285 285 286 287 288 289 291 291 291 291 292 291 290 290 291 291 289 289 290 292 292 292 291 292 293 292 294 294 294 294 294 294 294 295 294 293 294 294 292 292 290 289 290 289 290 290 289 288 288 286 286 286 284 284 282 282
279 276 278 277 277 278 277 280 277 278 282 276 274 279 283 284 285 284 283 282 284 284 285 284 286 286 287 287 288 288 289 288 290 291 291 289 289 288 286 286 289 286 286 285 287 289 288 288 290 291 290 291 292 292 292 292 292 291 291 292 292 292 291 292 293 292 293 294 293 293 294 294 294 294 294 293 294 293 293 293 292 292 290 290 290 290 287 289 286 286 285 284 284 285 284 281 283
277 282 277 278 275 276 276 277 275 277 280 279 275 280 283 285 285 284 281 281 282 281 283 285 284 286 288 288 287 288 288 289 290 291 291 291 290 289 285 285 286 286 285 286 286 287 287 288 290 290 290 291 292 292 292 292 291 292 292 290 291 290 289 292 292 292 291 293 293 293 293 293 293 293 293 293 294 293 293 293 293 292 291 290 289 288 287 287 287 286 285 288 284 282 284 282 282
278 281 280 278 275 278 276 274 277 278 280 277 276 278 282 281 279 279 279 279 281 281 281 282 283 285 287 288 287 287 287 288 289 289 290 291 290 291 290 289 286 285 286 286 286 286 287 290 288 289 290 290 291 292 295 292 291 291 291 290 289 290 290 290 289 289 290 289 291 292 292 291 292 293 292 292 293 293 293 293 293 291 291 290 290 290 288 288 286 285 285 286 286 285 282 284 284
275 278 277 277 280 280 278 276 278 277 278 277 278 277 275 274 284 286 285 279 280 282 282 281 282 284 284 284 285 285 286 287 288 289 290 290 291 291 290 290 287 287 287 286 287 287 289 288 289 289 290 290 290 292 293 291 291 291 290 291 290 290 290 289 289 292 291 291 292 290 292 291 292 293 293 293 293 293 293 293 292 292 291 290 290 290 290 289 288 287 287 286 286 287 286 284 283
273 275 278 280 277 279 277 276 278 274 276 278 278 275 273 274 275 277 279 278 280 280 283 285 283 284 283 285 286 287 286 286 287 289 289 289 289 290 290 290 291 290 289 288 287 288 287 288 288 288 289 289 290 289 290 292 292 291 289 289 289 289 290 289 292 293 292 291 293 290 290 292 292 292 293 293 293 293 293 292 292 292 291 290 290 290 290 287 287 287 287 287 286 286 288 284 284
278 278 277 275 277 277 277 277 277 275 276 278 276 278 271 274 277 279 277 275 277 280 278 281 282 284 283 284 285 286 286 288 288 287 288 289 290 290 291 291 291 291 292 289 286 286 286 287 287 288 289 289 290 289 290 293 290 290 291 292 291 292 291 292 291 291 291 290 289 290 291 289 290 292 292 291 292 292 292 292 292 292 292 291 290 289 289 289 289 288 287 287 287 288 285 286 286
278 278 276 277 278 279 278 277 278 275 275 277 276 272 273 275 277 275 274 277 278 279 282 283 282 281 283 284 285 284 287 286 286 287 288 288 288 288 290 291 290 291 290 289 288 287 287 287 287 287 288 291 289 289 289 292 291 290 290 290 291 291 291 293 290 289 288 288 288 290 288 289 288 289 291 290 291 291 292 291 291 291 291 291 290 290 290 289 288 288 288 288 287 287 286 287 287
278 278 279 279 279 277 276 280 278 276 276 275 274 277 276 272 277 275 277 282 283 281 282 283 281 281 282 284 285 285 286 286 285 287 289 289 289 289 289 290 291 290 290 290 290 289 287 286 287 287 287 288 289 288 290 290 292 291 291 291 290 292 292 292 292 290 290 288 289 288 287 288 288 287 288 290 289 290 291 291 290 290 290 290 290 290 289 289 288 288 286 286 286 286 286 287 286
280 278 279 278 278 277 277 275 278 274 274 271 276 276 273 273 273 275 275 280 278 279 283 285 284 283 283 284 286 286 285 286 286 286 286 288 288 288 288 288 289 289 289 289 289 289 288 286 288 289 287 286 287 287 290 289 290 291 290 289 290 291 291 291 288 290 289 288 289 290 288 288 288 288 288 288 289 289 290 290 290 290 290 290 290 290 289 288 288 288 288 287 287 286 286 286 286
278 280 280 276 274 277 274 273 273 272 269 270 275 274 275 273 276 277 281 281 279 280 280 281 281 282 283 283 284 285 286 286 286 286 286 287 287 287 286 287 288 289 289 288 290 290 288 288 287 288 288 287 287 287 287 288 288 289 291 290 290 290 290 289 289 290 289 287 289 290 288 289 288 288 287 289 288 289 289 289 290 290 290 290 290 289 289 289 288 288 288 287 287 286 286 285 286
279 279 280 276 276 272 274 265 268 269 263 267 273 275 274 271 272 273 278 277 276 283 284 286 286 286 286 284 284 284 284 285 285 285 287 287 288 288 287 289 288 288 289 290 289 289 289 288 287 289 289 289 287 287 286 287 287 288 288 289 290 290 290 290 290 290 290 289 289 289 288 287 288 287 285 286 287 288 288 288 289 289 289 289 289 289 289 289 288 287 287 286 286 285 285 285 284
279 276 273 274 270 265 269 262 272 265 267 277 274 273 272 274 280 279 275 277 277 278 284 287 286 286 284 284 284 284 284 284 285 285 286 287 286 287 288 288 288 288 288 288 288 288 288 288 287 289 291 288 288 287 288 287 286 287 288 288 288 289 289 289 289 289 289 289 289 289 288 288 287 288 287 287 288 287 288 288 288 288 289 289 289 288 288 287 287 286 286 285 285 285 286 285 284
278 279 273 270 267 258 263 253 257 263 270 273 275 272 274 276 279 280 283 285 280 278 280 281 282 284 285 284 283 284 285 284 284 284 284 284 285 287 286 286 286 287 287 287 287 288 288 288 287 288 290 288 287 287 287 288 287 288 287 288 288 288 288 288 289 289 289 289 289 289 288 288 289 288 289 288 289 287 287 288 288 288 289 288 288 288 287 286 286 286 285 285 285 286 285 285 285
278 274 277 273 263 267 266 258 270 272 271 272 270 271 270 273 280 281 278 279 277 277 277 278 279 281 281 281 282 284 284 284 282 283 285 286 287 285 286 286 286 286 286 287 286 287 286 288 288 288 289 289 288 287 286 287 287 288 288 288 289 287 289 288 289 290 289 289 289 289 289 289 288 289 289 290 288 286 286 287 287 287 287 287 287 287 287 286 286 286 286 285 286 285 285 285 284
277 276 277 274 272 272 272 259 262 261 265 268 269 272 274 279 279 283 278 278 280 279 280 279 280 281 281 284 286 286 285 284 284 284 286 285 285 285 285 285 286 285 286 286 286 286 286 287 286 287 287 287 287 288 287 286 287 286 286 286 288 288 289 288 289 289 289 289 289 289 289 289 289 288 289 288 287 286 287 286 286 287 287 286 286 286 286 286 285 285 285 285 285 285 285 284 284
277 277 273 277 274 274 265 264 265 265 263 269 264 275 278 279 279 278 275 280 283 281 281 280 281 283 283 285 287 286 285 283 284 285 285 286 285 285 285 285 285 286 286 286 286 285 285 286 286 287 287 286 287 286 287 286 286 286 286 286 286 286 286 286 288 288 289 288 287 288 288 289 288 288 289 286 287 285 285 285 285 285 285 285 284 285 285 285 284 284 285 284 284 283 283 283 283
278 274 274 278 274 271 273 272 262 258 264 269 268 271 274 275 278 278 277 278 280 280 281 281 282 282 284 287 287 286 285 284 284 284 285 285 285 285 285 284 285 286 286 285 286 285 285 285 285 285 285 286 286 286 286 286 286 286 286 287 286 285 286 286 287 287 287 287 287 286 286 287 287 288 286 287 285 285 284 284 284 284 283 283 283 283 283 283 283 284 284 284 283 282 283 282 283
278 277 279 279 272 274 269 267 265 265 263 262 268 267 270 274 278 277 278 277 280 280 281 281 284 284 285 286 287 286 284 283 284 285 285 286 285 285 285 285 285 285 286 285 285 284 284 284 284 284 285 285 285 285 284 285 284 285 285 285 284 285 284 284 285 285 284 284 286 286 285 286 285 285 286 284 284 284 283 283 283 283 282 283 282 282 282 282 282 283 283 283 282 282 282 282 282
276 278 279 277 274 266 269 270 266 267 265 263 267 265 277 277 275 275 279 276 279 280 281 284 286 286 287 286 287 286 284 284 285 285 286 286 285 285 285 286 288 287 285 285 284 283 284 284 283 283 283 283 284 284 284 284 284 284 285 283 283 283 283 284 283 283 283 283 284 284 284 284 285 284 284 283 283 283 282 282 283 282 282 282 282 282 282 282 281 283 282 283 281 281 281 282 281
276 277 271 273 273 276 274 270 271 272 258 259 261 268 274 278 277 278 281 281 280 281 285 286 286 286 286 285 286 286 284 284 284 285 286 286 285 284 284 283 283 283 282 283 283 283 283 283 282 282 283 283 283 283 283 283 283 284 283 283 283 283 283 283 282 282 281 282 282 283 283 283 282 283 282 282 283 283 283 283 282 283 282 282 282 282 281 281 281 281 281 281 281 280 280 281 280
278 279 276 279 275 272 271 273 269 264 269 268 259 272 275 283 278 281 282 281 279 279 282 284 284 286 286 285 285 284 285 285 284 285 284 285 285 284 284 283 283 283 284 283 283 282 283 282 282 281 281 282 282 283 282 283 282 282 281 282 282 282 281 282 282 282 282 283 282 282 282 281 282 282 281 281 281 281 281 282 282 281 281 281 282 282 281 280 281 280 280 281 281 280 279 279 280
Wind_Speed
6 5 3 1 2 2 4 7 1 2 2 0 0 1 2 0 1 2 1 0 3 2 3 1 2 4 1 2 3 2 3 6 7 8 2 2 1 4 5 5 3 1 4 4 3 4 3 5 9 7 8 6 5 6 3 2 2 2 2 4 3 4 5 6 6 5 6 6 6 6 6 6 6 6 6 7 8 8 8 8 9 9 9 9 10 10 10 11 11 11 12 11 11 11 11 11 12
3 4 3 1 1 1 0 1 3 2 6 2 3 1 2 0 2 5 6 5 3 1 1 1 0 2 4 5 2 1 4 9 9 3 4 4 6 4 6 6 3 6 4 3 3 4 2 3 7 6 6 6 6 4 5 3 2 2 3 3 3 4 5 4 6 6 5 6 6 6 6 6 6 6 6 6 6 8 8 8 8 8 9 9 10 10 10 10 10 11 11 11 11 11 11 11 11
4 6 3 2 5 5 3 4 2 1 2 1 3 6 0 4 5 5 7 4 2 0 1 1 1 0 1 1 1 2 5 1 2 4 3 3 2 4 6 7 5 4 6 4 4 3 2 3 6 7 6 7 6 6 4 3 3 3 3 3 4 4 4 5 5 5 5 6 6 6 6 6 6 6 6 6 6 6 8 7 8 8 8 8 9 9 9 10 10 11 11 10 11 11 11 11 11
2 4 0 2 1 4 1 4 3 6 2 5 1 2 4 5 7 8 5 3 1 0 0 2 3 1 3 1 3 1 5 3 6 4 2 1 8 2 8 10 6 3 2 4 4 3 3 4 8 8 6 7 7 6 4 4 4 3 3 3 3 5 4 4 5 5 5 5 6 6 6 6 6 6 6 6 6 6 5 7 6 7 7 8 8 9 9 9 10 10 10 11 11 11 11 11 12
4 1 3 4 4 1 3 0 4 2 2 4 2 2 3 4 6 4 2 3 3 1 1 1 0 0 1 1 0 1 4 4 3 5 2 3 2 3 6 9 6 4 4 4 4 4 4 7 9 8 7 7 7 6 5 5 4 4 4 3 4 4 4 4 4 5 5 5 5 6 6 6 6 6 7 6 6 6 5 6 7 7 7 7 8 8 8 8 9 9 10 10 11 11 11 12 12
4 3 5 4 1 2 5 1 1 1 2 3 1 3 5 6 6 6 1 1 1 1 2 1 1 0 0 3 4 3 4 1 2 1 2 3 5 5 7 8 7 6 5 5 4 4 5 8 10 9 9 8 7 6 6 6 5 5 4 4 4 4 4 4 4 5 4 5 5 6 6 6 6 6 6 7 6 6 6 6 6 6 6 7 7 8 8 8 9 9 10 10 11 11 11 12 12
1 4 5 4 4 4 3 2 1 2 1 5 1 2 6 5 4 6 2 1 1 1 2 1 1 0 1 3 2 6 5 2 2 2 9 1 4 6 8 7 7 8 6 6 5 5 5 9 11 10 10 9 7 7 7 6 6 5 5 5 4 5 5 4 4 4 4 5 5 5 6 6 6 6 6 6 6 6 6 6 5 6 6 6 7 7 8 8 8 9 9 10 10 11 11 12 12
1 2 1 1 1 3 2 1 1 3 1 4 1 2 4 5 4 4 5 3 2 4 1 2 1 2 6 2 2 2 2 4 3 1 3 2 5 5 8 8 8 8 7 5 5 5 6 11 11 11 10 9 8 8 7 7 6 6 6 5 5 5 5 5 5 4 4 4 5 5 6 6 6 6 6 6 6 7 6 6 5 6 6 6 7 7 7 8 8 9 9 10 10 10 11 11 11
5 7 0 4 1 3 3 1 1 2 5 1 4 5 2 4 7 6 4 2 2 0 1 2 4 3 3 4 4 3 5 3 4 2 3 3 6 7 7 8 9 8 7 6 5 5 5 9 13 12 11 10 9 8 8 7 7 7 6 6 6 6 6 5 5 4 4 4 4 5 5 6 6 6 6 6 6 7 6 6 6 6 6 6 6 7 7 8 8 9 9 9 10 10 10 10 10
2 2 1 2 3 1 1 1 2 2 2 1 2 2 3 4 4 1 5 1 3 1 2 1 2 4 1 5 6 5 2 2 2 1 4 5 5 7 7 9 8 9 7 6 5 5 5 8 13 12 11 10 9 9 8 8 8 7 7 7 7 7 7 6 5 5 4 4 4 5 5 5 6 6 6 6 7 7 6 6 6 6 6 6 6 7 7 7 8 8 9 9 10 10 10 11 10
0 6 2 3 3 2 2 2 3 3 1 4 5 4 4 4 6 2 2 2 1 2 0 4 1 5 1 5 5 2 3 3 3 7 8 7 5 8 7 7 7 8 9 7 6 5 5 6 10 13 12 11 10 9 9 9 9 8 8 8 8 8 7 7 6 5 5 4 4 5 5 5 6 6 6 6 7 6 7 7 7 6 6 6 6 7 7 7 8 8 9 9 10 10 10 11 11
1 1 2 2 1 3 2 4 1 4 6 2 2 1 3 6 3 2 3 2 2 1 3 7 1 4 1 2 5 1 4 4 8 4 5 5 6 8 8 7 6 6 7 8 6 6 6 5 6 8 12 12 10 10 10 10 9 9 9 8 9 8 8 8 7 7 6 5 5 5 5 5 5 6 6 6 6 7 7 7 7 7 7 6 6 6 7 7 7 8 8 9 9 9 10 10 11
2 2 6 5 1 1 0 2 2 2 3 4 4 1 5 6 6 5 4 3 0 4 4 10 1 0 2 3 5 6 4 6 5 4 4 7 7 6 4 5 6 5 5 6 6 7 6 6 6 6 6 12 11 11 10 10 10 10 9 9 9 9 9 8 8 7 7 6 6 6 6 5 5 5 6 6 6 7 7 8 8 8 8 7 7 7 7 7 7 8 8 8 9 9 9 10 10
4 6 5 1 1 1 2 1 1 0 3 1 1 3 7 4 5 5 5 4 6 5 3 5 1 3 4 2 8 4 5 3 4 3 3 3 3 4 4 4 5 5 4 6 7 7 6 6 6 6 5 5 5 7 10 11 11 11 10 10 10 10 10 9 9 8 8 7 7 7 6 6 5 5 6 6 6 7 7 7 8 8 8 8 8 7 7 8 8 8 8 8 8 8 9 10 9
2 1 6 4 2 0 3 2 5 2 1 3 3 8 2 5 2 3 6 4 8 5 0 1 5 3 6 7 8 2 1 4 2 2 5 4 3 3 3 3 4 4 4 4 5 6 7 6 7 6 5 5 5 5 4 5 11 11 11 11 11 11 11 11 10 9 8 8 7 7 7 7 6 6 6 7 7 8 8 8 8 8 8 8 8 8 8 8 8 8 8 8 8 8 9 10 10
5 6 4 4 2 4 2 2 2 2 1 3 0 2 6 1 2 4 5 4 1 1 1 5 1 5 2 5 3 2 2 3 1 4 5 4 2 2 1 2 2 4 4 4 5 6 5 6 6 6 6 6 5 5 5 5 7 10 11 10 10 12 11 11 10 9 8 7 8 8 8 5 4 3 7 5 7 9 8 7 8 9 9 8 9 8 8 8 8 8 8 8 8 8 9 9 9
2 4 1 1 1 1 2 2 4 1 1 2 2 4 6 3 1 3 1 1 2 3 2 3 6 1 6 6 3 1 2 1 5 5 4 3 2 2 2 3 3 4 4 5 6 6 6 6 7 6 6 6 6 5 5 5 6 8 8 11 11 11 10 9 9 8 8 7 6 5 6 3 1 2 3 3 6 4 7 8 8 9 9 9 9 9 8 8 8 7 7 8 8 8 8 8 8
2 1 3 2 1 1 5 4 7 1 1 3 3 5 4 2 0 1 1 1 2 2 4 5 5 9 7 5 1 0 1 4 4 6 4 5 3 4 5 5 4 8 7 7 6 6 6 6 7 7 6 8 6 6 5 5 5 7 6 5 5 6 8 8 7 5 5 4 5 4 3 2 3 3 3 4 3 4 5 8 9 10 10 10 10 10 9 8 8 8 7 7 7 8 7 3 4
2 2 2 0 5 1 6 3 5 2 1 2 3 2 4 4 4 1 1 3 1 5 8 4 9 12 11 11 8 1 3 3 5 5 7 8 7 9 9 6 7 5 8 7 7 7 7 6 6 8 8 7 7 6 6 5 5 5 5 6 5 6 6 5 5 5 4 4 4 4 4 4 3 3 3 3 4 6 5 8 9 9 9 10 9 10 10 9 9 9 9 8 8 7 4 3 3
1 1 1 1 6 1 3 2 2 1 3 2 4 2 3 1 2 1 2 3 1 8 8 2 9 17 15 15 5 9 4 4 5 6 8 9 9 10 8 9 9 10 10 8 7 5 7 8 8 7 8 7 7 7 6 6 6 5 6 6 6 6 6 6 5 5 5 4 5 4 4 3 3 3 4 5 5 3 4 7 8 9 8 7 8 6 7 7 8 8 8 8 6 4 3 3 3
0 2 1 2 3 3 1 3 1 2 2 1 4 1 1 3 2 1 1 1 9 12 12 12 12 16 16 3 5 6 8 7 6 7 8 9 10 9 10 12 12 10 7 4 5 8 8 8 7 8 7 6 7 7 7 7 6 6 6 6 6 6 6 6 6 5 5 5 5 5 4 3 3 3 3 3 4 4 4 4 4 4 3 5 5 4 4 4 4 5 4 4 3 3 4 3 3
3 1 0 0 1 1 0 1 1 1 2 5 3 5 5 1 0 2 3 5 12 7 6 11 14 11 8 7 5 4 7 10 10 9 12 12 13 13 9 8 5 4 3 7 10 7 7 8 8 7 6 7 8 8 8 7 6 7 6 7 6 6 6 6 6 6 6 6 5 4 3 4 4 4 4 4 4 3 4 5 5 4 4 5 2 5 5 3 3 2 3 3 3 1 2 2 2
1 1 1 1 1 0 1 0 1 4 3 4 4 3 2 1 2 2 6 13 10 3 1 4 8 8 5 3 2 4 7 10 11 14 13 12 12 12 11 10 8 9 7 8 5 6 6 6 8 7 8 8 9 7 6 6 7 7 7 6 7 7 6 6 7 6 7 5 5 4 5 5 5 5 5 4 6 3 5 6 6 3 4 5 3 3 4 3 3 3 3 4 3 2 3 2 2
4 2 0 0 1 0 2 0 1 3 9 3 4 1 1 3 4 1 4 17 21 7 2 1 2 1 1 2 4 8 9 11 14 15 13 16 15 16 12 10 9 5 5 9 7 6 7 10 8 7 8 8 7 7 7 7 7 7 7 6 7 7 6 7 7 7 6 6 5 5 4 5 6 6 5 5 6 3 6 5 5 5 4 6 3 3 5 5 3 3 3 4 4 3 3 3 3
2 1 2 0 0 0 1 0 1 2 1 0 1 1 3 6 2 2 12 18 11 12 9 12 11 7 8 9 12 9 9 9 12 11 8 9 7 7 6 8 6 6 10 9 8 8 9 8 7 9 8 9 8 7 8 8 7 7 6 7 8 7 7 7 7 6 6 6 5 5 4 6 5 6 6 6 3 5 5 5 4 6 4 6 3 5 4 5 5 4 4 4 3 4 3 4 3
2 1 2 0 0 2 2 1 3 1 0 1 0 4 5 7 4 6 20 16 7 6 6 8 6 8 11 12 13 10 11 13 11 10 12 7 7 7 10 9 7 9 14 9 7 9 7 6 7 10 11 10 9 7 8 7 8 8 8 8 8 6 8 8 5 6 6 6 6 5 6 6 6 6 6 6 5 6 5 4 5 6 6 5 4 6 5 4 6 4 4 4 4 4 4 3 2
2 3 2 4 1 1 4 1 4 2 0 0 1 5 2 4 2 9 1 2 4 2 4 4 3 9 11 8 8 7 9 14 13 8 5 6 8 10 12 7 9 14 7 9 9 10 5 5 9 10 10 8 7 8 8 9 7 9 9 8 6 8 8 6 6 6 6 6 6 5 5 6 6 6 6 6 5 6 5 5 6 5 6 6 5 6 3 5 4 5 5 5 4 5 5 2 1
3 4 3 5 4 1 3 1 4 4 1 0 1 4 1 1 1 10 8 1 2 5 7 6 5 8 9 8 8 7 7 11 6 5 12 9 11 11 10 10 13 11 8 13 11 5 6 9 10 9 9 8 8 9 9 9 9 9 8 6 8 8 5 6 7 6 7 7 6 5 6 6 6 6 6 6 6 6 6 6 6 5 7 5 5 5 5 4 5 4 4 3 4 3 4 3 2
1 1 0 4 5 2 8 2 4 3 1 1 1 3 1 1 6 15 6 4 6 7 10 8 6 7 8 8 8 7 10 8 5 7 13 12 8 6 11 11 11 9 9 10 7 5 8 10 9 9 8 7 9 11 10 9 8 8 8 8 8 6 6 6 7 7 7 6 5 6 6 6 6 7 7 7 6 6 6 6 6 7 7 5 4 4 4 4 3 4 4 2 3 2 3 4 1
0 4 2 3 7 3 5 2 3 2 1 2 1 5 5 7 15 13 4 7 6 6 8 8 8 8 8 7 7 8 7 6 7 11 10 9 8 7 10 9 8 9 8 6 4 8 10 5 6 5 7 10 11 9 8 8 8 8 7 7 6 6 6 7 7 7 6 6 6 6 6 6 6 6 6 6 6 6 6 6 7 7 6 4 4 4 5 4 5 4 5 3 5 4 5 4 3
1 2 5 2 3 2 2 2 5 0 1 4 1 2 11 7 8 9 4 0 6 11 12 10 9 9 9 8 7 8 9 6 9 8 8 9 7 7 10 7 7 8 6 5 10 13 6 7 6 6 8 9 8 9 10 10 7 7 7 7 7 7 7 7 7 6 6 7 6 6 6 6 7 7 7 7 6 6 6 7 7 8 5 4 5 5 6 4 4 6 4 5 4 4 4 4 3
2 2 1 3 1 3 4 3 4 0 1 4 1 1 8 10 14 4 1 3 8 10 12 11 9 9 9 8 8 7 9 5 7 9 10 9 7 8 8 10 7 7 10 10 8 5 8 8 7 7 7 9 10 11 10 9 8 8 7 7 7 6 7 7 7 7 7 6 6 6 6 7 7 7 7 6 7 7 7 8 8 6 4 4 6 5 4 6 6 6 5 4 5 6 4 6 3
5 3 4 2 1 5 5 0 2 4 2 3 2 6 7 10 4 3 1 10 7 7 10 9 9 9 8 7 7 7 9 8 5 7 8 6 7 7 8 8 8 10 8 7 9 7 7 7 8 8 10 11 11 10 8 7 7 8 8 8 8 6 7 7 7 6 6 6 6 7 7 7 7 7 7 6 7 7 7 8 8 6 4 5 5 5 6 6 5 5 5 4 5 6 4 5 5
2 2 1 1 1 2 2 3 1 5 2 3 5 1 8 11 15 16 11 4 7 6 9 9 7 7 7 7 7 7 7 7 10 6 6 5 6 6 8 8 7 7 6 7 7 8 9 6 7 8 8 7 7 8 8 8 8 6 5 5 4 6 6 6 6 5 6 6 6 7 7 7 7 7 7 7 7 8 7 7 7 5 5 5 6 5 7 4 5 4 6 4 5 4 5 5 6
1 1 3 2 1 4 5 2 1 7 3 1 2 3 14 15 13 13 8 5 4 7 8 8 9 8 8 6 6 6 6 7 8 6 5 5 5 5 5 5 5 5 6 7 6 6 5 5 5 6 7 6 6 6 5 4 3 2 2 3 4 5 5 5 4 5 6 6 7 8 7 7 8 7 7 7 8 8 7 7 7 5 5 6 5 5 5 4 4 4 5 5 3 5 6 4 5
1 3 2 1 2 3 3 3 3 5 7 6 1 5 11 16 16 15 10 3 5 9 7 7 6 6 5 5 6 6 6 8 5 6 6 5 5 5 5 4 4 4 4 4 5 5 6 5 5 5 6 7 5 3 3 3 3 5 5 3 5 6 5 5 6 7 6 7 9 8 8 8 7 8 8 7 8 8 7 7 7 5 5 5 6 6 7 6 7 5 6 5 5 3 3 4 2
5 4 3 1 2 6 4 2 3 2 3 2 2 4 6 14 14 14 11 9 5 4 6 6 5 6 7 7 7 8 7 5 7 8 5 5 5 5 4 4 3 3 3 3 4 5 7 8 5 8 6 5 5 6 5 6 6 3 2 5 8 6 7 5 6 7 7 8 8 8 8 8 7 7 7 7 8 7 7 6 6 5 5 6 7 9 7 6 5 5 4 4 5 4 3 3 3
1 4 1 2 2 3 1 0 4 6 5 4 3 8 12 12 11 11 7 5 4 4 7 5 7 6 6 6 8 8 8 7 7 8 8 5 6 6 4 2 1 2 3 3 6 7 5 5 7 8 5 6 7 8 8 7 6 6 6 8 7 7 6 6 9 7 9 7 7 7 7 6 7 7 6 6 6 7 7 7 7 7 6 7 7 5 4 4 4 4 4 3 3 5 4 3 4
3 1 2 1 1 6 6 1 3 3 3 8 4 9 15 16 12 11 5 4 5 5 3 5 5 8 7 7 6 8 9 9 9 7 7 8 8 5 4 2 0 3 3 3 5 4 5 5 6 5 5 7 7 8 7 7 6 6 6 4 5 4 3 5 5 4 4 6 7 6 6 6 5 6 5 5 6 7 8 7 8 6 6 6 6 6 5 5 5 6 6 6 3 2 3 2 4
1 0 2 3 3 4 5 1 4 4 1 4 4 8 14 11 7 7 7 3 4 5 5 8 5 5 6 6 6 7 7 8 8 7 8 8 6 6 5 5 4 3 3 4 3 4 4 5 5 5 5 5 6 7 7 7 4 3 2 0 1 2 2 0 2 4 4 4 6 4 5 4 4 6 5 6 6 6 7 8 6 5 6 6 7 7 6 7 5 5 6 6 4 4 3 5 5
1 1 1 1 1 0 2 5 7 3 2 1 6 5 8 3 1 1 1 3 4 4 6 1 2 5 5 6 5 3 5 5 7 8 8 8 10 9 6 6 5 4 4 4 4 4 4 5 5 5 5 5 4 4 6 4 2 1 1 0 1 1 1 1 3 7 5 4 5 5 6 4 5 6 6 6 6 7 6 6 6 6 6 6 6 7 7 8 7 7 8 7 8 8 7 4 3
4 3 2 1 1 1 3 5 8 8 1 3 5 6 3 3 5 8 8 7 4 3 3 2 4 5 4 5 6 6 4 3 4 5 5 5 5 7 6 6 7 6 5 4 4 4 4 5 4 4 4 4 5 5 5 4 5 5 4 4 4 4 7 4 8 11 6 6 7 3 4 6 6 6 6 6 7 6 7 7 6 7 7 7 7 8 7 5 6 7 9 8 8 8 7 4 5
1 0 1 3 4 2 1 5 4 5 2 2 2 1 8 7 4 4 2 5 6 7 1 3 5 5 5 4 4 5 5 7 6 4 5 7 7 7 7 7 6 6 6 5 4 4 4 4 4 4 5 4 4 4 5 5 5 5 7 7 7 7 8 7 5 4 4 4 4 5 4 4 5 6 5 5 6 6 6 6 7 7 7 7 6 6 7 8 8 8 6 8 9 7 5 8 9
2 0 5 4 2 1 0 2 2 3 2 3 3 3 2 8 10 3 4 3 4 4 4 4 4 4 5 5 5 4 5 4 4 5 5 4 4 4 5 6 5 6 6 6 5 3 3 4 3 4 3 4 4 4 5 6 7 6 6 6 7 7 7 10 4 4 2 1 3 5 3 4 4 4 5 5 5 6 6 6 6 6 7 7 6 8 9 7 6 6 7 9 7 7 9 10 9
1 3 1 1 1 1 3 1 0 0 1 6 1 1 0 5 9 4 1 2 2 5 5 5 4 5 5 6 6 5 4 4 3 5 6 6 5 5 4 6 6 5 5 6 6 5 4 3 1 1 3 3 2 4 4 5 5 6 7 6 7 7 7 9 6 4 5 3 5 4 4 4 3 4 4 5 5 5 6 7 6 7 7 8 7 7 7 7 9 8 8 7 9 8 8 9 6
1 4 4 5 5 4 2 2 2 1 2 6 2 2 2 8 7 5 2 1 6 7 8 8 7 5 5 6 7 6 4 5 4 3 4 5 5 5 4 4 4 5 4 4 4 4 4 3 1 1 3 1 2 3 4 4 5 4 5 5 7 8 5 6 4 7 4 3 6 7 4 5 6 5 5 5 5 6 6 6 6 8 8 7 7 8 7 7 8 8 9 9 8 8 7 7 9
4 4 3 3 5 3 2 6 2 2 1 6 2 2 0 4 6 7 4 7 7 6 3 5 5 6 7 6 7 6 5 5 5 5 4 4 5 5 4 4 4 5 5 5 6 6 5 5 3 3 2 1 1 3 3 4 4 4 6 6 7 8 6 5 6 8 5 4 7 7 6 6 4 6 4 5 5 5 6 5 6 7 6 6 7 7 8 9 8 8 7 6 7 9 7 7 6
2 1 0 3 1 5 2 3 3 1 5 2 2 1 0 2 6 6 9 4 3 8 8 8 8 7 6 5 4 4 4 4 5 4 5 5 7 5 4 5 6 5 6 8 6 6 6 5 4 4 4 4 1 1 3 4 3 4 5 5 6 7 6 5 7 9 6 6 6 8 5 4 4 5 4 5 5 5 5 5 5 5 6 6 8 7 6 7 6 5 5 6 6 6 4 6 6
3 2 4 2 6 6 3 2 2 3 3 1 2 1 2 9 11 10 6 7 6 7 7 10 9 7 6 6 7 5 4 5 4 4 4 4 3 4 5 5 5 6 5 5 6 5 5 5 5 5 5 5 4 2 1 2 3 4 5 5 5 5 5 5 6 7 6 6 6 6 6 6 5 5 5 5 6 6 4 5 5 6 6 7 7 5 6 5 4 5 5 5 6 7 8 8 8
3 2 3 3 1 2 2 5 1 5 4 3 1 2 3 6 11 10 14 14 7 6 7 5 5 7 6 6 4 6 6 5 5 4 4 4 4 4 3 3 4 4 5 5 5 5 5 5 5 5 5 4 4 4 2 1 3 3 3 4 5 4 5 5 6 6 6 5 5 6 6 6 6 5 6 5 6 4 4 5 5 6 6 5 5 5 5 4 4 6 6 7 8 8 7 8 9
6 1 2 4 5 1 2 2 5 5 3 3 4 2 6 1 3 1 7 6 4 5 6 5 5 7 6 6 7 7 7 5 4 4 4 4 4 3 4 3 3 4 4 4 4 4 4 5 5 5 6 6 5 4 3 2 3 3 3 3 4 3 5 4 5 5 5 5 5 5 5 5 5 6 6 6 4 4 4 4 5 6 6 6 5 5 6 5 6 6 6 8 7 6 7 7 7
1 2 4 4 4 5 4 4 2 1 3 5 1 6 4 6 4 8 3 6 7 5 7 4 8 7 5 6 6 6 5 5 4 3 4 4 4 3 3 3 3 3 4 3 4 4 4 4 4 3 3 4 4 4 4 3 3 3 2 3 4 4 4 3 4 5 5 5 5 5 6 5 6 5 6 4 5 4 4 4 4 6 5 5 5 5 5 5 5 6 6 5 7 4 6 6 7
2 3 3 2 1 7 7 1 1 1 4 7 1 9 8 8 7 4 7 2 7 4 4 3 6 7 2 5 7 6 6 5 4 4 4 4 3 2 2 2 2 3 3 4 3 2 2 4 4 5 5 4 5 4 4 4 4 4 3 2 3 3 3 4 4 4 4 4 4 4 4 5 4 4 5 3 4 4 4 4 4 5 4 4 4 4 4 4 4 4 5 5 6 4 4 6 4
3 1 4 1 1 3 3 2 1 4 2 7 2 4 9 7 9 4 7 5 8 4 6 5 6 3 5 7 7 7 6 5 4 5 5 5 5 5 4 2 1 1 2 3 3 3 2 2 3 4 4 5 5 5 5 4 5 4 4 4 4 3 3 3 3 4 4 3 4 3 3 5 4 4 3 4 3 4 4 3 4 4 3 3 4 4 4 4 4 5 5 5 4 3 5 4 5
0 1 1 1 1 1 2 3 2 1 3 5 6 2 8 7 10 5 7 3 6 6 3 3 7 7 8 7 9 8 7 6 5 5 4 5 4 4 2 1 1 0 0 1 2 2 2 3 3 2 4 3 4 4 4 3 3 3 3 3 4 4 3 3 3 3 3 3 4 4 3 4 4 4 3 3 4 4 3 3 2 3 3 3 3 4 3 3 3 5 4 5 3 3 4 5 5
0 0 1 0 1 1 3 5 2 4 3 3 7 5 8 7 7 7 8 7 6 6 3 8 11 9 9 7 7 7 6 5 5 4 5 5 4 3 2 1 0 1 2 3 3 2 4 3 3 4 3 3 4 4 4 5 4 4 4 3 3 2 2 3 3 3 3 3 3 3 3 4 4 3 3 3 3 3 3 3 2 3 3 2 3 3 2 2 2 4 3 4 3 3 3 5 4
0 1 1 1 0 2 3 1 2 3 4 3 1 6 9 9 7 6 10 8 8 7 9 9 9 9 9 8 8 7 6 6 5 5 5 5 4 2 2 2 2 2 1 2 1 2 2 2 4 4 4 4 5 4 4 4 4 4 4 4 4 4 5 4 4 3 3 3 3 3 3 3 3 3 3 3 3 3 3 2 2 2 2 2 2 2 1 2 3 3 3 2 2 3 3 3 2
6 10 9 10 8 3 1 8 2 1 2 4 4 9 9 12 6 10 10 8 6 6 6 7 7 10 10 8 8 8 7 7 6 5 5 5 4 3 3 2 1 0 0 1 2 3 4 4 3 3 4 4 4 5 4 5 4 4 4 4 4 4 3 4 4 4 4 4 4 3 3 3 3 3 2 3 3 2 2 1 1 2 1 1 1 1 1 2 2 2 2 1 2 2 3 3 2
Wind_Direction
318 348 333 311 60 108 56 2 168 338 62 338 50 124 189 102 190 112 188 10 139 238 200 80 157 131 166 205 184 192 202 135 209 127 217 234 238 248 228 214 279 247 186 179 198 224 222 219 200 217 194 195 182 201 210 184 235 254 291 303 309 306 309 315 317 329 327 341 334 340 340 342 346 343 342 346 349 357 12 6 13 14 14 19 20 20 21 19 23 22 22 22 24 28 33 36 38
320 343 24 8 41 45 170 110 96 354 38 66 247 117 241 263 124 193 180 185 203 163 208 127 52 92 59 100 148 130 279 214 175 199 270 240 286 266 200 187 180 184 182 193 206 209 217 288 206 216 196 191 200 193 199 206 216 242 281 283 289 298 302 309 310 328 329 330 333 338 337 338 338 341 337 345 348 349 359 13 10 12 15 14 19 16 20 18 21 25 22 22 25 30 32 36 39
352 8 20 18 38 74 85 36 282 77 103 225 265 204 32 139 192 201 198 207 225 328 106 77 108 344 65 106 332 149 263 269 294 282 241 321 343 258 169 171 179 196 176 188 201 193 229 251 209 194 204 198 194 196 192 199 217 252 261 269 284 293 303 308 312 322 326 330 336 331 333 333 335 338 338 338 347 348 350 0 17 10 11 15 14 17 19 20 21 26 24 24 27 32 33 36 38
86 38 29 49 179 35 54 26 91 132 163 205 303 252 172 184 217 198 214 236 232 341 159 188 143 226 150 189 214 63 275 298 200 165 282 224 199 205 164 163 179 191 217 182 186 195 209 237 193 197 209 209 192 197 185 204 226 233 244 269 282 296 302 306 314 315 324 327 329 329 330 335 332 336 336 336 342 349 352 350 15 13 9 13 14 14 18 22 20 25 28 28 31 34 36 37 38
58 346 59 102 111 5 105 127 148 101 220 195 178 267 232 197 204 192 252 242 264 175 157 151 87 264 195 196 195 179 245 233 295 194 254 260 245 196 162 157 152 164 205 200 179 196 214 207 197 199 204 218 204 192 192 207 223 230 243 254 279 281 293 302 304 313 319 324 326 330 330 334 333 335 333 337 339 345 349 350 353 14 11 12 15 15 21 26 24 29 31 33 36 39 39 40 40
50 39 7 72 77 151 70 87 16 140 221 147 117 235 212 205 176 187 213 233 249 197 197 125 189 177 297 216 187 206 208 43 153 197 172 251 203 177 164 155 152 174 203 197 190 189 202 206 198 201 205 215 211 198 195 212 218 229 235 253 256 272 281 289 299 311 316 321 326 330 332 333 336 331 334 336 338 341 347 352 349 4 11 11 15 22 26 30 28 32 36 37 41 44 44 42 44
7 42 2 38 31 51 174 127 212 201 282 153 226 234 199 202 205 133 147 95 235 262 178 211 95 49 344 296 307 240 197 107 111 228 172 179 138 152 156 158 156 186 193 198 192 197 197 204 199 202 204 209 212 201 203 211 216 228 234 241 253 262 271 279 292 303 314 323 327 327 330 331 332 335 334 337 337 339 343 348 350 359 6 11 20 25 29 34 33 36 38 41 44 45 45 45 46
60 129 336 120 286 50 40 166 206 153 315 171 229 234 211 184 154 151 175 122 220 179 212 285 216 123 248 42 242 277 316 231 198 33 206 91 133 158 160 156 169 192 190 198 196 194 201 205 202 203 205 208 207 206 209 210 223 223 234 236 246 256 260 269 282 291 312 320 323 328 328 332 332 335 335 336 338 341 342 346 352 356 3 12 21 26 32 35 36 39 41 43 44 43 43 44 46
7 85 283 69 53 35 63 71 255 235 284 253 276 224 244 183 161 140 167 215 321 203 166 200 224 121 258 0 224 259 288 264 258 266 188 156 154 167 165 172 175 186 192 192 197 200 200 213 205 206 207 207 208 209 208 215 217 228 226 236 244 249 254 264 269 283 291 310 321 325 326 330 333 333 337 337 341 342 344 347 352 356 2 11 19 26 31 34 34 36 39 41 42 39 40 40 41
47 40 269 107 132 54 16 292 93 193 246 247 252 252 171 149 164 159 166 239 221 128 240 244 168 224 349 292 305 298 249 340 293 261 201 196 169 164 176 185 184 171 185 194 197 197 202 218 213 208 207 209 209 210 211 214 222 226 229 236 242 245 253 256 263 268 281 294 310 318 321 325 332 332 334 339 338 342 344 348 354 356 2 9 18 24 29 31 32 32 33 34 33 34 34 34 35
352 21 131 76 25 100 192 216 256 316 282 320 301 235 209 138 142 187 185 206 187 157 320 154 127 249 341 269 225 238 291 319 137 222 195 188 164 176 186 186 186 175 178 191 195 198 207 213 230 212 208 210 212 210 213 217 222 227 230 236 241 247 250 255 259 266 274 285 296 307 311 320 327 331 332 335 336 337 342 347 353 355 358 6 15 20 23 26 28 28 28 27 27 28 30 31 31
335 32 9 102 152 165 242 162 255 281 297 341 273 158 184 149 119 161 216 212 196 242 179 164 208 138 188 315 283 288 312 291 210 216 167 161 178 188 184 180 184 190 181 182 184 196 205 216 225 234 212 212 212 215 215 221 223 229 233 237 242 247 250 254 258 263 270 278 286 293 301 310 320 324 326 329 335 333 340 343 349 348 352 1 7 12 17 20 21 22 21 20 22 25 28 29 28
112 96 83 80 197 129 247 103 236 284 324 260 188 216 134 126 190 196 189 194 171 168 277 219 113 109 269 200 256 313 322 264 238 203 167 168 189 181 183 184 190 187 183 174 177 199 205 211 221 228 237 216 215 216 221 222 225 230 233 238 242 247 250 253 257 261 263 269 276 281 289 295 304 310 314 316 327 330 334 338 340 340 345 353 358 4 10 11 12 15 14 15 18 26 27 27 25
121 178 122 126 49 104 145 198 7 200 265 246 269 128 161 148 233 185 132 180 225 171 234 193 126 135 256 358 298 326 257 271 301 193 148 158 145 166 183 186 194 198 197 173 192 197 202 211 216 222 227 234 217 222 222 223 225 229 233 238 242 246 250 252 255 257 261 264 269 273 279 287 292 297 300 303 310 320 324 327 332 333 337 345 348 355 1 2 5 7 7 10 16 23 27 24 22
112 145 83 116 68 79 230 115 196 160 221 189 183 139 174 246 130 132 168 175 260 209 309 162 183 122 249 157 277 247 252 301 318 135 127 114 124 154 185 184 198 212 217 207 207 194 207 207 215 218 221 225 219 216 226 230 225 225 230 235 241 244 248 252 253 256 259 261 264 270 273 278 283 284 290 292 299 308 314 319 323 324 327 333 339 345 352 354 358 1 3 6 10 18 26 22 18
136 95 84 109 187 152 216 148 222 97 277 173 122 158 153 268 174 133 247 176 255 325 142 221 211 203 217 164 217 218 254 323 134 105 113 122 106 131 177 224 224 230 226 217 218 218 209 206 212 215 216 217 215 213 216 224 234 226 226 232 236 242 246 250 252 254 255 258 261 264 268 271 295 311 290 300 311 300 308 311 306 314 316 318 325 333 340 344 349 354 357 4 7 16 24 19 13
63 77 76 42 145 176 204 158 153 60 243 246 288 157 165 229 206 243 122 150 229 253 206 222 195 237 221 202 214 223 319 155 102 95 104 119 135 213 266 263 254 261 229 227 218 218 216 209 213 210 215 215 214 211 217 221 227 233 230 227 232 237 243 246 252 251 252 252 255 259 263 283 299 288 304 304 293 302 296 300 299 300 307 311 314 319 325 333 339 343 349 0 6 15 23 22 12
59 98 133 48 189 81 197 167 190 185 112 197 183 205 148 224 281 247 89 286 215 282 256 276 291 257 235 242 181 146 123 121 135 130 157 185 171 222 239 236 209 229 220 228 222 215 211 216 212 209 213 216 210 210 215 216 223 232 228 235 237 238 242 244 246 248 245 245 252 254 259 256 261 275 280 285 288 290 298 294 296 294 299 307 312 315 318 322 330 333 339 350 360 11 22 35 6
96 145 85 177 193 247 149 200 186 113 345 157 195 201 184 217 148 267 177 286 327 277 259 224 258 268 260 255 241 236 126 138 162 177 177 193 199 212 219 217 224 237 239 224 223 207 210 209 211 210 212 209 207 212 214 216 217 223 230 229 232 233 234 241 241 246 245 242 241 241 248 250 254 259 268 261 269 275 279 286 292 296 297 302 311 313 315 318 321 325 334 338 358 10 25 13 3
203 116 30 272 206 329 212 165 186 213 141 93 155 219 155 253 156 20 201 241 347 237 247 236 231 253 247 245 220 229 196 200 196 192 203 209 209 210 217 218 224 226 228 215 216 202 202 208 210 209 207 205 201 213 216 217 218 216 224 227 228 230 236 238 238 239 239 237 237 236 238 244 253 258 265 279 284 288 290 292 292 294 300 309 309 316 314 317 318 327 333 337 9 5 4 359 352
267 69 162 166 178 108 237 173 246 218 175 139 145 62 178 271 219 147 236 292 259 249 229 211 224 233 252 259 220 216 220 222 222 219 220 223 224 221 217 214 212 219 219 204 212 214 202 206 205 213 207 203 204 210 210 216 214 215 222 227 225 229 232 236 236 237 237 234 235 234 234 238 249 258 264 273 272 275 285 282 283 285 294 295 300 304 301 303 328 320 331 340 342 358 349 335 351
83 73 208 148 63 50 241 200 9 115 116 103 127 121 216 53 61 208 161 210 251 211 241 207 236 251 257 258 245 206 211 220 222 219 224 220 219 225 230 246 255 250 189 198 219 213 209 203 203 206 198 207 206 206 209 213 201 215 219 220 221 229 227 231 233 232 236 233 228 227 229 241 252 256 262 265 269 258 270 269 269 271 288 277 286 288 290 292 297 299 303 299 303 329 307 298 300
53 346 337 218 214 127 306 322 228 136 124 129 148 220 84 157 262 229 188 217 241 162 152 200 218 244 280 317 191 214 222 224 222 223 221 227 229 231 227 224 219 226 213 228 214 215 209 205 207 195 202 206 212 210 213 212 214 214 216 212 212 229 215 226 231 229 231 229 224 217 217 234 243 245 257 257 262 240 257 256 262 257 262 269 263 260 279 275 269 282 290 280 284 305 303 303 298
105 165 77 351 194 103 245 259 230 184 123 203 190 73 190 128 248 119 227 237 244 252 235 227 224 342 6 293 225 229 226 225 229 226 219 223 221 224 220 221 222 229 212 230 224 213 205 212 202 189 208 204 211 203 209 214 220 214 216 216 217 223 207 223 228 224 225 226 222 215 212 221 227 239 246 251 251 242 249 255 252 262 248 253 255 232 260 275 273 262 271 288 293 291 305 299 307
89 96 215 197 129 290 303 128 85 166 163 33 111 153 231 184 213 6 253 252 254 260 270 274 272 273 274 265 260 246 247 247 247 242 239 237 238 244 234 228 222 209 233 225 220 213 217 209 186 199 207 210 209 193 209 217 215 217 217 215 224 213 215 222 223 218 222 224 220 213 199 220 222 230 241 242 244 245 252 251 251 252 248 252 239 252 225 255 264 257 263 269 279 280 286 293 301
74 146 117 2 54 320 346 207 40 22 168 163 92 269 272 241 293 256 255 271 279 267 261 259 278 279 267 256 255 251 247 246 246 248 239 236 235 234 237 220 213 220 226 223 215 223 216 192 192 202 206 207 204 187 213 212 214 213 218 218 222 211 222 223 212 219 222 211 223 212 207 210 217 217 232 238 224 249 246 250 247 247 247 246 225 251 231 229 248 256 257 258 263 266 273 270 304
126 123 114 104 299 344 8 89 344 320 188 274 250 302 311 351 125 286 326 295 6 21 301 301 271 257 259 257 261 253 242 247 240 247 271 238 235 224 237 218 214 230 218 229 221 224 200 179 208 208 208 207 193 202 208 217 207 217 220 217 214 217 223 216 216 222 221 214 221 208 208 210 216 220 224 232 226 239 247 243 245 245 252 240 223 246 230 227 233 233 236 245 250 256 262 256 281
57 132 138 30 351 109 0 29 6 351 352 101 190 260 4 298 91 240 249 221 8 346 298 287 280 261 264 266 263 260 250 252 248 216 240 234 229 219 230 214 224 227 208 229 223 200 178 204 210 209 207 202 195 209 213 215 214 218 223 211 217 222 211 214 221 219 225 221 215 210 207 208 211 221 218 229 225 234 243 240 247 242 249 239 219 236 240 232 231 240 237 237 245 240 269 280 248
191 198 97 325 9 41 11 25 339 18 297 98 167 284 307 167 226 235 259 347 352 312 286 282 259 257 264 266 265 257 247 257 228 223 234 233 235 212 232 222 224 222 227 231 222 185 208 211 209 211 201 199 203 211 213 217 217 220 218 215 220 214 209 212 219 221 224 223 212 212 212 209 208 214 218 222 226 229 238 243 248 241 246 236 223 227 237 239 238 247 257 226 240 242 277 276 260
298 31 93 8 3 9 347 328 349 11 243 82 256 339 270 243 245 266 299 326 332 328 309 309 309 301 291 286 279 275 263 258 237 232 239 238 233 222 230 229 214 220 228 223 199 216 217 207 202 199 195 203 209 214 213 217 218 219 217 219 218 205 209 209 221 222 222 224 215 215 214 213 213 215 215 224 219 230 235 238 244 250 238 227 220 216 228 221 233 235 244 222 244 236 252 264 294
116 288 65 72 19 270 351 42 310 60 102 25 45 295 295 273 258 254 303 339 26 326 307 306 307 305 302 297 290 282 276 232 247 248 243 237 234 227 232 239 215 219 231 216 209 224 210 208 192 206 197 207 209 213 214 218 216 213 213 214 213 205 208 211 220 220 219 222 210 220 216 215 217 216 213 217 223 220 233 241 241 244 230 207 212 212 218 224 218 233 221 227 246 249 245 260 253
26 51 286 330 79 279 298 38 26 104 322 42 109 305 240 278 286 301 245 332 6 319 306 305 303 300 301 301 300 295 284 268 254 254 247 245 230 234 227 239 220 219 216 222 226 218 217 210 200 206 198 204 209 213 214 215 213 210 210 213 209 204 207 212 216 215 218 215 210 223 218 219 219 218 214 210 225 221 227 238 242 241 222 205 218 213 202 226 221 233 228 205 237 254 245 265 222
358 70 272 273 9 257 341 347 333 268 250 334 64 265 324 303 251 275 288 344 337 312 300 300 301 299 301 306 307 306 312 311 285 265 269 258 245 231 232 235 221 222 223 223 222 216 226 216 207 208 207 207 209 212 212 214 210 210 209 210 208 197 206 216 217 213 213 214 215 223 221 219 221 218 215 208 218 226 227 236 245 232 207 208 215 215 214 220 213 227 235 209 202 246 239 262 274
322 28 189 216 244 330 299 317 242 343 44 272 1 252 243 257 296 305 313 349 326 311 295 296 296 294 298 304 307 308 308 308 307 302 284 253 250 238 238 234 228 222 225 225 223 216 222 216 210 212 222 216 212 208 209 210 213 215 217 211 208 208 216 217 218 201 217 217 214 226 220 219 223 218 215 210 216 228 228 232 246 224 203 207 218 211 229 210 217 208 242 213 198 212 242 246 263
274 341 354 324 312 217 254 332 330 9 10 339 324 271 272 278 290 294 295 346 349 288 280 291 299 304 309 314 312 312 312 309 292 295 295 290 281 263 251 246 240 225 222 216 216 220 228 223 210 220 219 214 215 212 214 211 205 212 215 210 222 233 231 224 210 216 222 214 220 224 216 219 222 217 214 208 215 226 229 233 241 227 199 209 212 224 236 219 214 207 221 240 199 213 225 229 240
245 184 192 175 314 294 249 255 286 44 323 329 305 262 301 303 305 305 316 12 321 284 298 291 281 293 302 312 319 327 323 305 281 302 308 302 288 292 282 268 251 239 232 221 218 213 217 221 206 216 216 210 203 185 164 179 177 202 220 249 264 242 236 227 218 223 217 219 227 219 218 219 219 216 214 210 215 223 227 232 233 219 207 199 213 226 233 215 215 212 227 222 236 247 226 237 227
102 82 91 190 249 283 283 284 284 305 300 275 288 294 284 284 281 285 297 330 319 326 309 307 319 327 326 328 326 320 319 301 310 306 302 313 307 300 290 287 274 270 251 236 227 225 217 215 193 219 210 193 180 180 181 179 188 207 238 226 235 224 218 218 230 229 223 229 227 220 220 221 218 218 216 204 217 222 228 234 228 228 205 203 213 227 224 218 211 205 204 191 218 243 270 207 216
125 111 70 306 213 291 220 330 332 323 49 287 7 323 290 275 285 283 306 348 306 308 321 319 319 313 315 316 321 321 303 297 331 352 347 357 355 339 335 352 327 275 272 215 226 231 222 213 208 220 188 189 194 193 194 190 190 186 177 203 204 214 214 211 232 226 227 234 231 229 226 225 222 221 219 209 220 217 228 229 226 229 204 214 222 230 224 212 198 196 179 224 199 204 241 194 185
42 218 208 335 302 250 292 295 337 305 15 268 2 347 296 292 295 295 277 258 259 256 230 261 286 306 320 324 322 315 333 332 335 338 341 351 347 352 350 356 332 233 284 233 248 250 236 223 226 222 204 192 203 198 185 202 203 216 197 207 182 229 236 227 234 242 224 231 234 230 232 232 227 234 224 217 218 223 228 229 232 224 213 209 220 231 218 221 201 198 187 202 219 230 234 209 179
92 348 10 288 270 22 321 303 8 331 37 279 341 324 286 301 297 264 261 219 266 266 259 255 215 261 286 303 304 304 313 327 337 326 321 332 337 339 1 6 336 318 286 279 260 241 244 235 235 228 224 211 204 208 207 215 200 205 246 120 201 194 224 283 298 292 272 273 261 234 240 229 227 235 224 221 226 229 224 229 237 220 222 202 211 223 214 224 199 201 192 209 186 240 205 241 194
341 138 142 234 338 331 173 276 327 296 14 43 296 293 304 325 294 298 299 333 312 306 326 312 286 235 264 287 301 235 274 308 315 331 339 348 349 345 328 319 329 339 308 281 263 241 227 234 229 220 222 215 213 209 217 207 186 171 179 45 25 342 313 312 315 277 231 237 260 242 239 202 218 228 223 221 222 231 228 231 227 228 219 209 203 218 220 217 205 201 192 190 191 208 237 226 230
324 229 169 186 150 225 328 333 358 10 358 28 39 355 321 306 284 249 283 344 338 326 3 316 301 318 345 342 320 316 304 261 275 306 314 309 313 324 341 349 1 344 331 302 262 249 235 244 228 221 223 220 213 209 195 177 199 197 180 202 248 245 264 252 243 243 233 223 236 221 211 206 211 221 220 219 220 223 229 224 221 223 222 211 206 216 222 211 205 196 198 195 205 212 219 209 238
47 245 167 128 119 103 49 345 28 357 353 336 11 91 271 328 298 263 329 329 299 321 341 287 303 300 316 299 305 310 313 330 331 317 326 349 344 349 347 355 346 341 325 324 305 276 260 251 234 216 210 214 210 199 178 174 190 199 205 213 220 221 229 248 238 257 242 238 226 234 231 221 213 215 225 217 219 223 228 224 220 222 222 217 210 207 218 218 210 205 188 194 208 197 187 228 225
262 3 129 96 83 56 301 89 110 230 272 304 52 104 215 307 288 268 290 315 307 324 303 293 289 296 293 296 296 305 313 311 302 306 314 322 322 340 332 320 327 327 312 324 325 316 293 276 253 233 218 213 207 186 179 185 192 198 203 218 225 232 224 251 239 236 227 225 246 249 235 243 226 216 227 222 220 223 222 228 221 222 221 221 203 211 218 217 207 209 195 202 199 193 193 211 226
228 193 125 106 131 150 123 89 127 209 348 294 344 336 339 256 265 312 330 251 274 273 264 265 277 285 284 293 294 295 299 299 294 313 326 322 319 320 319 325 321 326 343 345 335 322 310 304 291 271 245 230 223 189 182 199 202 198 207 210 231 234 233 247 266 269 272 264 279 264 256 260 250 243 226 229 226 223 222 224 218 220 220 222 208 218 221 207 206 201 197 195 200 206 201 214 210
235 137 85 88 73 70 100 101 87 330 51 283 208 10 196 284 276 334 340 292 261 242 235 237 243 259 283 297 299 298 308 317 312 281 284 299 304 303 299 289 324 336 329 330 340 348 347 340 344 321 280 244 236 210 197 200 206 199 204 216 229 248 243 267 277 274 271 281 269 274 262 260 251 244 236 228 231 226 227 223 221 221 223 219 212 218 215 212 212 210 205 203 201 206 208 205 212
124 129 80 29 39 46 29 64 89 55 341 257 240 328 144 295 271 224 161 221 198 214 282 273 283 282 273 261 259 278 292 305 307 313 298 288 289 279 304 332 327 339 350 5 9 7 355 0 348 337 300 316 235 212 191 211 202 199 214 218 226 245 252 255 277 275 268 267 259 268 263 259 247 247 239 241 228 231 232 224 225 229 225 220 219 217 217 214 214 211 210 205 202 206 206 208 221
114 96 114 36 6 11 55 342 32 96 278 260 259 274 332 203 292 283 240 280 240 173 187 215 226 240 252 270 271 263 272 288 301 303 317 324 333 334 348 357 352 338 355 6 3 1 6 358 358 357 351 350 329 232 186 212 195 213 223 225 232 238 244 248 251 264 264 262 261 270 271 274 264 252 245 252 250 239 232 232 231 233 228 221 225 221 224 220 216 206 202 202 213 212 210 199 205
77 70 33 66 279 21 293 15 294 200 199 243 320 248 352 233 231 252 285 261 260 232 203 197 204 225 248 260 260 270 288 295 290 291 310 314 306 309 333 336 349 360 352 347 352 352 359 5 5 12 5 356 347 343 226 229 212 225 220 227 237 245 245 245 251 258 261 261 267 274 282 276 279 283 257 250 254 244 229 236 233 230 234 229 232 220 230 220 209 200 202 206 205 205 208 202 201
97 149 135 85 3 36 261 279 234 296 296 271 294 281 264 263 282 243 245 255 223 231 228 234 233 222 222 241 284 303 295 280 268 276 282 269 278 296 299 309 325 330 343 344 345 0 353 4 5 22 352 7 357 0 340 291 255 251 240 236 244 240 249 243 249 253 266 262 262 267 268 269 278 266 275 260 257 243 221 229 229 231 233 234 225 225 223 215 201 202 198 204 209 215 204 205 213
205 140 128 186 137 169 271 226 263 245 222 279 284 38 236 63 238 199 222 250 268 243 255 255 251 245 258 280 283 280 284 281 255 270 265 265 278 279 292 304 309 320 331 343 345 359 358 7 6 7 3 0 7 5 360 330 290 275 252 238 243 241 245 251 252 248 259 266 262 262 264 264 256 262 255 260 265 252 238 229 226 228 230 227 219 218 216 206 203 201 203 211 216 209 213 205 217
189 175 84 84 236 134 215 204 159 279 351 343 241 211 198 203 269 283 267 285 277 248 254 256 261 247 253 293 279 275 274 272 273 273 282 274 252 276 286 299 309 323 329 333 359 358 9 356 352 1 5 344 356 2 5 346 311 293 270 254 249 237 242 242 254 252 250 238 253 245 257 254 252 253 261 262 265 245 244 237 228 231 229 226 220 217 216 210 205 204 214 212 224 208 214 209 221
246 99 202 213 127 96 92 82 64 64 51 252 170 312 283 299 313 302 342 349 289 317 277 210 237 235 247 264 268 266 266 268 267 249 247 268 297 284 254 273 302 335 346 346 330 348 351 357 5 2 360 3 10 359 351 343 334 341 322 298 284 278 260 254 258 270 269 271 257 261 260 268 277 271 276 269 275 263 250 240 240 243 238 231 228 225 221 219 206 208 214 217 229 213 210 220 213
89 179 237 177 144 121 130 255 357 60 147 263 58 245 303 17 292 320 340 319 281 293 264 242 234 235 244 246 253 255 255 252 262 269 263 258 259 268 280 266 249 274 290 317 334 337 334 6 21 12 7 8 352 353 353 350 346 344 334 335 329 304 290 285 282 280 287 292 283 272 275 284 274 281 274 279 282 280 271 253 246 256 252 229 228 227 220 215 196 209 216 222 222 188 209 219 214
116 187 266 120 213 196 328 91 300 269 267 278 310 291 259 199 257 328 296 280 283 270 269 257 236 236 239 247 259 265 268 278 270 258 265 259 243 243 252 271 287 268 250 279 307 329 357 17 9 30 4 349 334 334 341 339 357 339 325 326 319 327 329 309 301 296 302 295 295 300 295 281 301 296 296 296 294 282 277 277 246 260 253 242 229 230 215 213 195 215 219 227 216 188 205 227 227
63 336 23 260 109 182 125 196 181 117 272 43 291 23 273 200 215 205 247 240 247 263 263 229 224 221 227 234 246 254 264 251 249 255 253 249 254 249 250 261 306 331 334 329 338 345 18 359 13 3 351 356 352 0 355 351 345 347 341 342 350 343 332 331 323 320 324 313 296 307 308 317 294 310 308 297 295 293 299 296 283 261 272 260 252 249 213 211 191 221 223 225 217 182 213 232 242
51 107 310 343 343 218 103 13 142 188 180 176 212 327 277 256 215 187 239 236 230 209 218 225 220 229 232 232 237 246 246 250 246 235 244 253 258 278 284 261 258 291 290 297 321 348 341 360 8 3 3 351 357 347 352 344 342 346 351 355 346 353 351 353 352 1 353 340 335 333 325 300 319 330 332 333 328 315 314 297 291 280 268 269 255 270 208 193 202 230 235 227 204 186 218 246 233
178 168 196 177 127 139 167 263 34 88 123 236 130 254 273 271 166 208 230 244 234 234 225 244 241 233 233 238 245 236 246 248 240 244 240 255 264 273 280 295 286 332 315 339 345 4 17 7 351 351 352 2 350 347 351 338 340 340 352 346 348 348 350 358 9 8 11 5 358 357 333 337 345 322 350 332 335 333 336 328 308 320 318 293 273 267 194 174 211 234 258 203 206 197 220 249 220